When you browse on this site, cookies collect data to enhance your experience and personalize the content and advertising you see.
Visit our Privacy Policy to learn more. By continuing to use the site, you agree to this use of cookies and data.
  • In Latvia
  • List of Countries
  • For 7 days
  • Water Temperature
  • Satellite Maps
  • Weather Map
  • Weather Widgets
  • user-avatar
    Login

    Hourly Weather Seli

    Today, 23 February, Saturday

    Time Temperature Precipitation Wind Pressure Humidity
    00:00 +11°C° 0.1 mm 3 mps 748 mmHg 83%
    01:00 +11°C° 0.1 mm 4 mps 748 mmHg 83%
    02:00 +11°C° 0.1 mm 4 mps 747 mmHg 84%
    03:00 +10°C° 0.1 mm 3 mps 747 mmHg 84%
    04:00 +10°C° 0.1 mm 3 mps 747 mmHg 84%
    05:00 +10°C° 0.1 mm 3 mps 746 mmHg 84%
    06:00 +10°C° 0.1 mm 3 mps 746 mmHg 84%
    07:00 +11°C° 0.1 mm 3 mps 746 mmHg 84%
    08:00 +11°C° 0.1 mm 3 mps 746 mmHg 84%
    09:00 +12°C° 0 mm 3 mps 746 mmHg 79%
    10:00 +12°C° 0 mm 3 mps 747 mmHg 75%
    11:00 +13°C° 0 mm 3 mps 747 mmHg 70%
    12:00 +13°C° 0.1 mm 3 mps 747 mmHg 69%
    13:00 +13°C° 0.1 mm 3 mps 747 mmHg 69%
    14:00 +14°C° 0.1 mm 3 mps 747 mmHg 68%
    15:00 +13°C° 1.1 mm 3 mps 746 mmHg 74%
    16:00 +13°C° 1.1 mm 2 mps 746 mmHg 79%
    17:00 +12°C° 1.1 mm 2 mps 746 mmHg 84%
    18:00 +12°C° 1 mm 2 mps 747 mmHg 85%
    19:00 +12°C° 1 mm 2 mps 747 mmHg 85%
    20:00 +12°C° 1 mm 2 mps 747 mmHg 85%
    21:00 +12°C° 0.3 mm 2 mps 747 mmHg 85%
    22:00 +12°C° 0.3 mm 2 mps 747 mmHg 85%
    23:00 +11°C° 0.3 mm 3 mps 748 mmHg 84%

    Tomorrow, 24 February, Sunday

    Time Temperature Precipitation Wind Pressure Humidity
    00:00 +11°C° 0.7 mm 3 mps 748 mmHg 84%
    01:00 +11°C° 0.7 mm 3 mps 748 mmHg 84%
    02:00 +11°C° 0.7 mm 3 mps 748 mmHg 84%
    03:00 +11°C° 0.6 mm 3 mps 748 mmHg 84%
    04:00 +12°C° 0.6 mm 2 mps 748 mmHg 84%
    05:00 +12°C° 0.6 mm 2 mps 747 mmHg 84%
    06:00 +12°C° 0.6 mm 2 mps 748 mmHg 84%
    07:00 +12°C° 0.6 mm 2 mps 748 mmHg 83%
    08:00 +12°C° 0.6 mm 2 mps 748 mmHg 82%
    09:00 +12°C° 0.6 mm 3 mps 749 mmHg 78%
    10:00 +13°C° 0.6 mm 3 mps 749 mmHg 73%
    11:00 +14°C° 0.6 mm 3 mps 749 mmHg 68%
    12:00 +14°C° 0.9 mm 4 mps 749 mmHg 65%
    13:00 +14°C° 0.9 mm 4 mps 749 mmHg 62%
    14:00 +15°C° 0.9 mm 4 mps 749 mmHg 59%
    15:00 +14°C° 0.8 mm 5 mps 749 mmHg 61%
    16:00 +14°C° 0.8 mm 5 mps 749 mmHg 62%
    17:00 +13°C° 0.8 mm 5 mps 749 mmHg 64%
    18:00 +13°C° 0.8 mm 6 mps 749 mmHg 69%
    19:00 +11°C° 0.8 mm 6 mps 749 mmHg 73%
    20:00 +10°C° 0.8 mm 6 mps 749 mmHg 78%
    21:00 +10°C° 1.1 mm 6 mps 749 mmHg 79%
    22:00 +10°C° 1.1 mm 6 mps 750 mmHg 79%
    23:00 +10°C° 1.1 mm 6 mps 750 mmHg 80%

    Day after tomorrow, 25 February, Monday

    Time Temperature Precipitation Wind Pressure Humidity
    00:00 +10°C° 0.8 mm 5 mps 750 mmHg 81%
    01:00 +10°C° 0.8 mm 5 mps 749 mmHg 81%
    02:00 +10°C° 0.8 mm 5 mps 749 mmHg 82%
    03:00 +10°C° 0.4 mm 5 mps 748 mmHg 83%
    04:00 +10°C° 0.4 mm 6 mps 748 mmHg 84%
    05:00 +10°C° 0.4 mm 6 mps 747 mmHg 86%
    06:00 +10°C° 1.4 mm 7 mps 747 mmHg 88%
    07:00 +9°C° 1.4 mm 7 mps 746 mmHg 91%
    08:00 +9°C° 1.4 mm 8 mps 746 mmHg 93%
    09:00 +10°C° 3.2 mm 8 mps 746 mmHg 93%
    10:00 +10°C° 3.2 mm 9 mps 746 mmHg 92%
    11:00 +11°C° 3.2 mm 9 mps 745 mmHg 92%
    12:00 +11°C° 5.2 mm 10 mps 745 mmHg 91%
    13:00 +11°C° 5.2 mm 11 mps 745 mmHg 91%
    14:00 +12°C° 5.2 mm 11 mps 744 mmHg 90%
    15:00 +10°C° 4.7 mm 12 mps 744 mmHg 92%
    16:00 +10°C° 4.7 mm 13 mps 744 mmHg 93%
    17:00 +9°C° 4.7 mm 13 mps 744 mmHg 95%
    18:00 +9°C° 1 mm 14 mps 744 mmHg 93%
    19:00 +9°C° 1 mm 14 mps 744 mmHg 91%
    20:00 +9°C° 1 mm 14 mps 745 mmHg 89%
    21:00 +9°C° 1.3 mm 14 mps 745 mmHg 90%
    22:00 +9°C° 1.3 mm 13 mps 745 mmHg 91%
    23:00 +9°C° 1.3 mm 13 mps 746 mmHg 92%

    26 February, Tuesday

    Time Temperature Precipitation Wind Pressure Humidity
    00:00 +9°C° 0.7 mm 13 mps 746 mmHg 92%
    01:00 +9°C° 0.7 mm 13 mps 746 mmHg 92%
    02:00 +9°C° 0.7 mm 13 mps 746 mmHg 91%
    03:00 +9°C° 0.5 mm 13 mps 746 mmHg 91%
    04:00 +9°C° 0.5 mm 13 mps 746 mmHg 90%
    05:00 +8°C° 0.5 mm 13 mps 747 mmHg 90%
    06:00 +8°C° 0.4 mm 13 mps 747 mmHg 90%
    07:00 +8°C° 0.4 mm 12 mps 748 mmHg 89%
    08:00 +8°C° 0.4 mm 12 mps 748 mmHg 89%
    09:00 +8°C° 0.3 mm 11 mps 749 mmHg 89%
    10:00 +8°C° 0.3 mm 11 mps 749 mmHg 88%
    11:00 +8°C° 0.3 mm 11 mps 749 mmHg 88%
    12:00 +8°C° 0.1 mm 10 mps 749 mmHg 84%
    13:00 +9°C° 0.1 mm 10 mps 749 mmHg 81%
    14:00 +9°C° 0.1 mm 10 mps 749 mmHg 78%
    15:00 +9°C° 0.1 mm 10 mps 750 mmHg 77%
    16:00 +8°C° 0.1 mm 10 mps 750 mmHg 77%
    17:00 +8°C° 0.1 mm 9 mps 750 mmHg 76%
    18:00 +8°C° 0 mm 9 mps 750 mmHg 77%
    19:00 +7°C° 0 mm 9 mps 751 mmHg 78%
    20:00 +7°C° 0 mm 8 mps 751 mmHg 78%
    21:00 +7°C° 0 mm 8 mps 751 mmHg 79%
    22:00 +8°C° 0 mm 7 mps 751 mmHg 80%
    23:00 +8°C° 0 mm 6 mps 751 mmHg 80%

    27 February, Wednesday

    Time Temperature Precipitation Wind Pressure Humidity
    00:00 +8°C° 0 mm 6 mps 751 mmHg 81%
    01:00 +8°C° 0 mm 5 mps 750 mmHg 81%
    02:00 +8°C° 0 mm 4 mps 750 mmHg 81%
    03:00 +8°C° 0 mm 4 mps 750 mmHg 80%
    04:00 +7°C° 0 mm 4 mps 749 mmHg 79%
    05:00 +7°C° 0 mm 4 mps 749 mmHg 78%
    06:00 +9°C° 0 mm 3 mps 748 mmHg 74%
    07:00 +9°C° 0 mm 3 mps 748 mmHg 70%
    08:00 +9°C° 0 mm 3 mps 748 mmHg 66%
    09:00 +11°C° 0 mm 3 mps 748 mmHg 59%
    10:00 +13°C° 0 mm 4 mps 748 mmHg 52%
    11:00 +14°C° 0 mm 4 mps 748 mmHg 44%
    12:00 +15°C° 0 mm 4 mps 748 mmHg 48%
    13:00 +15°C° 0 mm 5 mps 747 mmHg 52%
    14:00 +16°C° 0 mm 5 mps 747 mmHg 56%
    15:00 +15°C° 0 mm 5 mps 747 mmHg 59%
    16:00 +14°C° 0 mm 5 mps 747 mmHg 61%
    17:00 +13°C° 0 mm 5 mps 747 mmHg 64%
    18:00 +11°C° 0 mm 6 mps 748 mmHg 67%
    19:00 +11°C° 0 mm 6 mps 748 mmHg 70%
    20:00 +10°C° 0 mm 6 mps 748 mmHg 74%
    21:00 +9°C° 0 mm 7 mps 749 mmHg 73%
    22:00 +9°C° 0 mm 7 mps 749 mmHg 71%
    23:00 +9°C° 0 mm 7 mps 750 mmHg 70%

    28 February, Thursday

    Time Temperature Precipitation Wind Pressure Humidity
    00:00 +8°C° 0 mm 7 mps 750 mmHg 69%
    01:00 +8°C° 0 mm 7 mps 750 mmHg 69%
    02:00 +8°C° 0 mm 7 mps 750 mmHg 68%
    03:00 +8°C° 0.1 mm 7 mps 750 mmHg 69%
    04:00 +6°C° 0.1 mm 7 mps 751 mmHg 70%
    05:00 +6°C° 0.1 mm 7 mps 751 mmHg 71%
    06:00 +6°C° 0 mm 7 mps 751 mmHg 71%
    07:00 +8°C° 0 mm 7 mps 752 mmHg 71%
    08:00 +7°C° 0 mm 8 mps 752 mmHg 70%
    09:00 +7°C° 0 mm 8 mps 753 mmHg 68%
    10:00 +9°C° 0 mm 8 mps 753 mmHg 65%
    11:00 +10°C° 0 mm 8 mps 753 mmHg 63%
    12:00 +10°C° 0 mm 7 mps 753 mmHg 62%
    13:00 +11°C° 0 mm 7 mps 753 mmHg 62%
    14:00 +11°C° 0 mm 7 mps 753 mmHg 62%
    15:00 +10°C° 0 mm 6 mps 753 mmHg 63%
    16:00 +10°C° 0 mm 5 mps 753 mmHg 65%
    17:00 +11°C° 0 mm 4 mps 753 mmHg 66%
    18:00 +10°C° 0 mm 3 mps 753 mmHg 69%
    19:00 +9°C° 0 mm 2 mps 753 mmHg 71%
    20:00 +10°C° 0 mm 1 mps 753 mmHg 74%
    21:00 +9°C° 0 mm 1 mps 753 mmHg 74%
    22:00 +8°C° 0 mm 2 mps 753 mmHg 75%
    23:00 +8°C° 0 mm 2 mps 753 mmHg 75%
    Show more